Simultaneous Nadir Overpasses (SNOs) Predictions

Prediction of SNOs between NOAA-19 and NPP Satellite Orbit:

Table of predicted SNOs for the next 14.0 days since TLE Epoch: 12/28/2018
Index Date (NOAA-19) Time (NOAA-19) Lat,Lon (NOAA-19) SZA (NOAA-19 ) Date (NPP) Time (NPP) Lat,Lon (NPP) SZA (NPP ) Distance(km) Time Diff (sec)
1 01/05/2019 02:28:04 -80.09, -82.33 74.36 01/05/2019 02:29:06 -80.12, -77.23 74.95 97.50 62
2 01/05/2019 03:18:57 80.29, 87.98 105.44 01/05/2019 03:19:58 80.32, 87.87 105.44 3.21 61
3 01/05/2019 04:09:55 -80.30,-104.62 74.58 01/05/2019 04:10:42 -80.29,-104.50 74.63 2.58 47
4 01/05/2019 05:00:57 80.31, 62.80 105.41 01/05/2019 05:01:27 80.29, 62.77 105.38 2.33 30
5 01/05/2019 05:51:56 -80.30,-130.12 74.59 01/05/2019 05:52:13 -80.32,-130.23 74.57 2.70 17
6 01/05/2019 06:42:58 80.31, 37.29 105.40 01/05/2019 06:42:57 80.30, 37.36 105.38 2.34 1
7 01/05/2019 07:33:57 -80.30,-155.63 74.60 01/05/2019 07:33:43 -80.32,-155.64 74.57 2.22 14
8 01/05/2019 08:24:59 80.31, 11.77 105.39 01/05/2019 08:24:28 80.32, 11.63 105.43 3.00 31
9 01/05/2019 09:15:57 -80.32, 179.19 74.62 01/05/2019 09:15:12 -80.30, 179.26 74.63 2.83 45
10 01/05/2019 10:07:00 80.31, -13.74 105.39 01/05/2019 10:05:58 80.33, -13.78 105.43 2.04 62




NCC Satellite Simultaneous Nadir Overpasses (SNOs) Prediction Service
